DW9566 Weather Reports


time (UTC)temp
C
wind
direction
speed
KPH
gust
KPH
rain 1hr
cm
rain 24hr
cm
rain mn
cm
humidity
%
barometer
mb
20260506163622 16 222 4.8 8.0 0.00 0.00 0.00 72 1020.6
20260506162630 15 192 1.6 3.2 0.00 0.00 0.00 72 1020.6
20260506161653 15 239 1.6 4.8 0.00 0.00 0.00 73 1020.6
20260506160634 15 271 3.2 4.8 0.00 0.00 0.00 73 1020.6
20260506155631 15 196 0.0 6.4 0.00 0.03 0.00 74 1020.6
20260506154616 15 203 3.2 6.4 0.00 0.03 0.00 76 1020.6
20260506153643 15 219 3.2 8.0 0.00 0.03 0.00 75 1020.6
20260506152629 14 172 1.6 3.2 0.00 0.03 0.00 76 1020.5
20260506151650 14 172 1.6 6.4 0.00 0.03 0.00 75 1020.5
20260506150614 14 22 1.6 3.2 0.00 0.03 0.00 77 1020.5
20260506145619 13 272 1.6 1.6 0.00 0.03 0.00 78 1020.5
20260506144622 13 272 1.6 3.2 0.00 0.03 0.00 80 1020.5
20260506143627 13 276 0.0 0.0 0.00 0.03 0.00 82 1020.5
20260506142631 12 276 0.0 0.0 0.00 0.03 0.00 82 1020.3
20260506141617 11 277 0.0 0.0 0.00 0.03 0.00 81 1020.3
20260506140622 11 277 0.0 0.0 0.00 0.03 0.00 81 1020.0
20260506135643 11 277 0.0 0.0 0.00 0.03 0.00 81 1019.9
20260506134624 12 277 0.0 1.6 0.00 0.03 0.00 80 1019.9
20260506133629 12 277 1.6 3.2 0.00 0.03 0.00 80 1019.9
20260506132635 12 277 0.0 3.2 0.00 0.03 0.00 80 1019.8
20260506131617 12 277 0.0 0.0 0.00 0.03 0.00 80 1019.8
20260506130622 12 277 0.0 4.8 0.00 0.03 0.00 80 1019.5
20260506125619 12 277 1.6 3.2 0.00 0.03 0.00 79 1019.5
20260506124646 12 277 0.0 1.6 0.00 0.03 0.00 79 1019.5
20260506123630 12 277 1.6 6.4 0.00 0.03 0.00 79 1019.5
20260506122633 12 267 1.6 6.4 0.00 0.03 0.00 79 1019.4
20260506121635 12 281 1.6 4.8 0.00 0.03 0.00 79 1019.4
20260506120622 12 290 0.0 3.2 0.00 0.03 0.00 79 1019.5
20260506115618 12 285 0.0 4.8 0.00 0.03 0.00 80 1019.4
20260506114641 12 296 1.6 3.2 0.00 0.03 0.00 80 1019.4
20260506113623 12 277 1.6 4.8 0.00 0.03 0.00 80 1019.2
20260506112625 12 263 1.6 4.8 0.00 0.03 0.00 80 1019.0
20260506111634 12 261 3.2 6.4 0.00 0.03 0.00 80 1019.0
20260506110657 12 274 1.6 6.4 0.00 0.03 0.00 80 1019.0
20260506105634 12 290 1.6 6.4 0.00 0.03 0.00 80 1019.0
20260506104616 12 277 3.2 4.8 0.00 0.03 0.00 80 1019.0
20260506103623 12 288 0.0 6.4 0.00 0.03 0.00 80 1019.0
20260506102629 12 339 0.0 4.8 0.00 0.03 0.00 80 1018.9
20260506101614 12 269 3.2 4.8 0.00 0.03 0.00 80 1018.9
20260506100639 12 308 1.6 6.4 0.00 0.03 0.00 81 1018.9
20260506095623 12 287 0.0 3.2 0.00 0.05 0.00 81 1018.9
20260506094630 11 327 1.6 4.8 0.00 0.05 0.00 81 1018.9
20260506093632 11 271 3.2 4.8 0.00 0.05 0.00 81 1018.9
20260506092618 11 269 1.6 4.8 0.00 0.05 0.00 81 1018.9
20260506091641 11 318 0.0 4.8 0.00 0.05 0.00 81 1018.9
20260506090628 12 269 1.6 4.8 0.00 0.05 0.00 81 1018.9
20260506085632 12 275 1.6 3.2 0.00 0.15 0.00 81 1018.9
20260506084639 12 275 0.0 4.8 0.00 0.15 0.00 81 1018.9
20260506083621 12 263 3.2 4.8 0.00 0.15 0.00 81 1018.9
20260506082643 12 263 3.2 6.4 0.00 0.15 0.00 81 1019.0
20260506081631 12 306 1.6 6.4 0.00 0.15 0.00 81 1019.0
20260506080634 12 310 0.0 4.8 0.00 0.15 0.00 81 1019.0
20260506072642 11 276 3.2 8.0 0.00 0.23 0.15 81 1018.6
20260506071624 11 265 4.8 9.7 0.00 0.23 0.15 82 1018.6
20260506070647 11 257 6.4 9.7 0.00 0.23 0.15 82 1018.5
20260506061621 11 263 4.8 6.4 0.00 0.25 0.15 80 1018.3
20260506060630 12 292 3.2 4.8 0.00 0.25 0.15 80 1018.4
20260506050626 12 242 6.4 12.9 0.00 0.28 0.15 78 1017.9
20260506044628 12 293 4.8 11.3 0.00 0.28 0.15 78 1017.8
20260506043615 12 269 6.4 12.9 0.00 0.28 0.15 78 1017.5
20260506042620 12 229 4.8 11.3 0.00 0.28 0.15 78 1017.4
20260506041622 13 228 4.8 6.4 0.00 0.28 0.15 78 1017.4
20260506040629 13 232 4.8 8.0 0.00 0.28 0.15 78 1017.3
20260506035647 13 220 6.4 11.3 0.00 0.28 0.15 78 1017.1
20260506034628 13 222 4.8 11.3 0.00 0.28 0.15 77 1017.1
20260506033631 13 226 4.8 12.9 0.00 0.28 0.15 77 1016.8
20260506032654 13 219 4.8 9.7 0.00 0.28 0.15 77 1016.7
20260506031619 13 221 8.0 16.1 0.00 0.28 0.15 76 1016.7
20260506030642 13 226 4.8 14.5 0.00 0.28 0.15 76 1016.3
20260506025617 13 229 6.4 11.3 0.00 0.28 0.15 75 1016.4
20260506024623 14 264 6.4 11.3 0.00 0.28 0.15 74 1016.4
20260506023630 14 236 8.0 14.5 0.00 0.28 0.15 74 1016.3
20260506022617 14 238 6.4 16.1 0.00 0.28 0.15 74 1016.2
20260506021619 15 216 11.3 17.7 0.00 0.28 0.15 73 1016.2
20260506020621 15 234 8.0 16.1 0.00 0.28 0.15 73 1016.1
20260506015620 15 202 9.7 14.5 0.00 0.28 0.15 73 1015.9
20260506014627 15 211 8.0 16.1 0.00 0.28 0.15 73 1015.9
20260506013632 15 234 6.4 16.1 0.00 0.28 0.15 72 1015.9
20260506012654 15 221 8.0 12.9 0.00 0.28 0.15 72 1016.0
20260506011656 15 252 9.7 16.1 0.00 0.28 0.15 72 1016.0
20260506010657 16 227 9.7 16.1 0.00 0.28 0.15 72 1015.9
20260506005619 16 222 8.0 16.1 0.00 0.28 0.15 71 1015.8
20260506004621 16 277 8.0 16.1 0.00 0.28 0.15 72 1015.8
20260506003623 16 217 11.3 14.5 0.00 0.28 0.15 72 1015.8
20260506002626 16 225 8.0 12.9 0.00 0.28 0.15 71 1015.7
20260506001614 16 204 8.0 12.9 0.00 0.28 0.15 71 1015.7
20260506000621 16 221 6.4 14.5 0.00 0.28 0.15 70 1015.6
20260505235617 16 257 4.8 12.9 0.00 0.28 0.15 71 1015.7
20260505234619 16 292 8.0 14.5 0.00 0.28 0.15 72 1015.7
20260505233628 16 242 8.0 14.5 0.00 0.28 0.15 71 1015.7
20260505232633 16 261 4.8 14.5 0.00 0.28 0.15 72 1015.7
20260505231617 16 196 6.4 16.1 0.00 0.28 0.15 72 1015.7
20260505230639 16 234 6.4 12.9 0.00 0.28 0.15 71 1015.8
20260505225633 16 248 8.0 12.9 0.00 0.28 0.15 70 1015.6
20260505224623 17 226 6.4 12.9 0.00 0.28 0.15 69 1015.6
20260505223630 17 201 4.8 14.5 0.00 0.28 0.15 68 1015.6
20260505222635 17 250 6.4 17.7 0.00 0.28 0.15 69 1015.7
20260505221617 17 208 9.7 14.5 0.00 0.28 0.15 68 1015.7
20260505220646 17 262 8.0 12.9 0.00 0.28 0.15 71 1015.8
20260505215642 16 171 6.4 11.3 0.00 0.28 0.15 70 1015.8
20260505214623 16 271 4.8 12.9 0.00 0.28 0.15 71 1015.8
20260505213629 16 246 6.4 11.3 0.00 0.28 0.15 71 1015.9
20260505212631 16 244 6.4 12.9 0.00 0.28 0.15 72 1015.9
20260505211617 16 271 6.4 11.3 0.00 0.28 0.15 71 1015.9
20260505210619 16 233 8.0 11.3 0.00 0.28 0.15 73 1015.9
20260505205619 16 232 4.8 11.3 0.00 0.28 0.15 74 1016.0
20260505204621 15 262 4.8 9.7 0.00 0.28 0.15 74 1016.0
20260505203628 15 273 6.4 9.7 0.00 0.28 0.15 74 1015.9
20260505202630 15 233 4.8 9.7 0.00 0.28 0.15 74 1016.0
20260505201652 15 261 6.4 11.3 0.00 0.28 0.15 75 1016.0
20260505200637 15 237 8.0 11.3 0.00 0.28 0.15 76 1016.1
20260505195618 15 265 4.8 14.5 0.00 0.28 0.15 76 1016.1
20260505194622 15 239 8.0 17.7 0.00 0.28 0.15 75 1016.1
20260505193624 15 205 8.0 16.1 0.00 0.28 0.15 75 1016.1
20260505192629 15 262 6.4 11.3 0.00 0.28 0.15 74 1016.1
20260505191614 15 239 6.4 11.3 0.00 0.28 0.15 76 1016.1
20260505190620 15 242 4.8 14.5 0.00 0.28 0.15 76 1016.0
20260505185620 15 221 6.4 11.3 0.00 0.28 0.15 77 1015.9
20260505184642 15 260 6.4 11.3 0.00 0.28 0.15 77 1015.9
20260505183627 15 241 6.4 11.3 0.00 0.28 0.15 78 1015.8
20260505182653 14 316 3.2 9.7 0.00 0.28 0.15 78 1015.8
20260505181634 14 256 4.8 12.9 0.00 0.28 0.15 79 1015.8
20260505180616 14 267 6.4 11.3 0.00 0.28 0.15 80 1015.8
20260505175636 14 293 4.8 14.5 0.00 0.28 0.15 82 1015.8
20260505174622 14 229 4.8 16.1 0.00 0.28 0.15 84 1015.8
20260505173644 13 259 4.8 9.7 0.00 0.28 0.15 85 1015.5
20260505172626 13 281 4.8 9.7 0.00 0.28 0.15 86 1015.6
20260505171631 13 213 4.8 9.7 0.00 0.28 0.15 86 1015.6
20260505170633 13 227 0.0 4.8 0.00 0.28 0.15 86 1015.7
20260505165622 13 267 1.6 4.8 0.00 0.28 0.15 86 1015.6
20260505164624 12 229 3.2 6.4 0.00 0.28 0.15 86 1015.6